Stockwell, IN (47983)

3:16 PM EDT on April 21, 2015 (GMT -0400)
INDOT | | Change Station
CLOSE
Current Station
Personal Weather Station
Location: Dayton, IN
Elevation: 643 ft
Nearby Weather Stations
Active Advisory: Wind Advisory Active Notice: Public Information Statement

Elev 643 ft 40.36 °N, 86.75 °W | Updated 29 minutes ago

Partly Cloudy
Partly Cloudy
57 °F
Feels Like 57 °F
N
30
Wind Variable Wind from WNW
Gusts 40.0 mph

Today
High -- | Low -- °F
--% Chance of Precip.
Yesterday
High -- | Low -- °F
Precip. -- in
7:00 AM 8:31 PM
Waxing Crescent, 12% visible
Pressure 29.71 in
Visibility 10.0 miles
Clouds Clear
Dew Point 23 °F
Humidity 26%
Rainfall in
Snow Depth Not available.
UV 9 out of 12
Pollen 11.50 out of 12
Air Quality Not available.
Flu Activity Local Activity
METAR KLAF 211854Z 26013G30KT 10SM CLR 13/M03 A2971 RMK AO2 PK WND 27033/1824 SLP060 T01331028

More Conditions Fewer Conditions

Pressure 29.71 in
Visibility 10.0 miles
Clouds Clear
Dew Point 23 °F
Humidity 26%
Rainfall in
Snow Depth Not available.
UV 9 out of 12
Pollen 11.50 out of 12
Air Quality Not available.
Flu Activity Local Activity
METAR KLAF 211854Z 26013G30KT 10SM CLR 13/M03 A2971 RMK AO2 PK WND 27033/1824 SLP060 T01331028

More Conditions Fewer Conditions

10-Day Weather Forecast

Almanac

Astronomy

Apr. 21, 2015 Rise Set
Actual Time
Civil Twilight
Nautical Twilight
Astronomical Twilight
Moon
Length of Visible Light
Length of Day
Tomorrow will be .
, % of the Moon is Illuminated

Today's Extremes

State Highs State Lows

Community

WunderPhotos

Upload Photos

1,815,491 photos uploaded!

WunderBlogs® & News

Nearby

Air Quality

  Air Quality AQ Index Pollutant
Not available.

Snow Depth

Station Depth Elevation

Earthquake Activity

City Distance Mag. Time & Date
Minimum magnitude displayed is 2.5.

Coastal Water Temperatures

Place Temperature

Stations

Nearby Weather Stations

Station Location Temp. Windchill Dew Point Humidity Wind Precip. Elev Updated Type
                   
Wind Advisory
Statement as of 10:05 AM EDT on April 21, 2015

... Wind Advisory remains in effect until 8 PM EDT this evening...

A Wind Advisory remains in effect until 8 PM EDT this evening.

* Timing: 11 am until 8 PM.

* Winds: 40 to 50 mph westerly wind gusts

* impacts: unsecured objects will be blown about. Driving will
be difficult for high profile vehicles.

Precautionary/preparedness actions...

A Wind Advisory means that winds of 35 mph are expected. Winds
this strong can make driving difficult... especially for high
profile vehicles. Use extra caution.